Regional Weather Roundup
Issued by NWS

Home | Current Version | Previous Version | Text Only | Print | Product List | Glossary On
Versions: 1 2 3 4 5 6 7 8 9 10 11 12 13 14 15 16 17 18 19 20 21 22 23 24 25 26 27 28 29 30 31 32 33 34 35 36 37 38 39 40 41 42 43 44 45 46 47 48 49 50
000
ASUS46 KLOX 240912
RWRCA

SOUTHERN CALIFORNIA WEATHER ROUNDUP
NATIONAL WEATHER SERVICE OXNARD CALIFORNIA
200 AM PDT FRI OCT 24 2014

NOTE: "FAIR" INDICATES FEW OR NO CLOUDS BELOW 12,000 FEET WITH NO
SIGNIFICANT WEATHER AND/OR OBSTRUCTIONS TO VISIBILITY.

  -  STATIONS PRECEEDED BY AN ASTERISK (*) ARE NOT NWS OR FAA
     STATIONS AND ARE NOT SUBJECT TO NWS AND FAA QUALITY CONTROL.

CAZ041-042-087-241000-
LA AND ORANGE COUNTY COASTAL AREAS


CITY           SKY/WX    TMP DP  RH WIND       PRES   REMARKS
L.A. DOWNTOWN  CLEAR     63  57  81 CALM      29.96S
L.A. AIRPORT   PTCLDY    66  66 100 CALM      29.97S FOG
LONG BEACH     CLEAR     63  59  87 CALM      29.96S

CITY           SKY/WX    TMP DP  RH WIND       PRES   REMARKS
AVALON           N/A     57 N/A N/A S3          N/A
FULLERTON        N/A     62  55  77 CALM      29.96S
*GETTY CENTER    N/A     70  43  37 NE1         N/A
HAWTHORNE      CLEAR     64  60  87 CALM      29.97S
*LOS ALAMITOS  MOCLDY    60  59  97 N2        29.97R
*REDONDO BEACH   N/A     60  57  88 CALM      29.96S
SANTA ANA      MOCLDY    66  55  68 CALM      29.96S
STA MONICA APT CLEAR     63  42  46 N5        29.97S
*UCLA            N/A     64  45  48 N6        29.94F

$$

CAZ547-548-048-241000-
LA COUNTY VALLEYS AND INLAND EMPIRE


CITY           SKY/WX    TMP DP  RH WIND       PRES   REMARKS
BURBANK        CLEAR     62  43  49 CALM      29.98S
VAN NUYS       CLEAR     61  40  45 CALM      29.98S

CITY           SKY/WX    TMP DP  RH WIND       PRES   REMARKS
CORONA AIRPORT SUNNY     51  45  80 CALM      29.99R
*CHATSWORTH      N/A     60  42  51 CALM      29.95S
CHINO          CLEAR     60  51  72 CALM      29.99S
MARCH AFB      CLEAR     55  38  52 CALM      30.01S
*NORTHRIDGE      N/A     61  43  51 CALM        N/A
ONTARIO        CLEAR     65  44  46 NE5       29.98F
*PASADENA        N/A     64  41  42 CALM        N/A
RIVERSIDE      CLEAR     62  48  60 E5        29.99R
SAN BERNARDINO NOT AVBL
*WHITEMAN AP   NOT AVBL
*WOODLAND HILL   N/A     55  43  62 SE1         N/A

$$

CAZ054-055-241000-
LA AND SAN BERNARDINO COUNTY MOUNTAINS


CITY           SKY/WX    TMP DP  RH WIND       PRES   REMARKS
*BIG BEAR AIRP SUNNY     34  19  55 CALM      30.31S
*CHILAO          N/A     63  25  23 E10         N/A
MT WILSON NWS    N/A     61  19  20 MISG        N/A
SANDBERG       CLEAR     65  23  20 S14       30.15S
*WARM SPRINGS    N/A     64  21  19 SW9         N/A

$$

CAZ028-029-059-060-099-241000-
ANTELOPE VALLEY AND SURROUNDING AREAS


CITY           SKY/WX    TMP DP  RH WIND       PRES   REMARKS
LANCASTER      CLEAR     58  24  27 CALM      30.05S
PALMDALE       CLEAR     53  28  38 S8        30.05F

CITY           SKY/WX    TMP DP  RH WIND       PRES   REMARKS
29 PALMS       CLEAR     60  37  42 W3        30.10S
BARSTOW/DAGGET CLEAR     61  33  35 NW6       30.02S
BISHOP         CLEAR     43  25  49 NW6       30.10R
CHINA LAKE     CLEAR     60  25  26 S5        30.03S
EDWARDS AFB    CLEAR     52  22  30 CALM      30.03S
MOJAVE         FAIR      64  19  17 W6        30.06S
NEEDLES        CLEAR     69  39  33 N5        29.98S
VICTORVILLE    CLEAR     61  27  27 CALM      30.08S

$$

CAZ039-040-241000-
VENTURA AND SANTA BARBARA COUNTY COAST


CITY           SKY/WX    TMP DP  RH WIND       PRES   REMARKS
CAMARILLO      CLEAR     57  49  74 NE3       29.95F
NWS OXNARD       N/A     57  50  78 NW3       29.95F
OXNARD AIRPORT CLEAR     60  48  64 NE3       29.95F
SBA APT/GOLETA CLEAR     56  49  77 CALM      29.95F
*SANTA BARBARA   N/A     60  51  74 CALM      30.03S
*VENTURA         N/A     59  47  63 N3        29.99S

$$

CAZ044-045-241000-
VENTURA COUNTY VALLEYS


CITY           SKY/WX    TMP DP  RH WIND       PRES   REMARKS
*SIMI VALLEY     N/A     59  37  43 CALM      29.92S
*OJAI            N/A     49  43  79 CALM      29.92S
*FILLMORE        N/A     53  47  79 CALM      29.87F

$$

CAZ053-241000-
VENTURA COUNTY MOUNTAINS


CITY           SKY/WX    TMP DP  RH WIND       PRES   REMARKS
*LOCKWOOD VLY    N/A     41  19  42 MISG        N/A
*ROSE VALLEY     N/A     37  28  70 MISG        N/A

$$

CAZ034-035-036-241000-
CENTRAL COAST AND SANTA YNEZ VALLEY


CITY           SKY/WX    TMP DP  RH WIND       PRES   REMARKS
SAN LUIS OBISP MOCLDY    51  51 100 CALM      29.97F
SANTA MARIA    FOG       54  50  86 CALM      29.98F VSB 1/4

CITY           SKY/WX    TMP DP  RH WIND       PRES   REMARKS
*CAL POLY SLO    N/A     50  50 100 CALM        N/A
*LOMPOC        CLOUDY    57  52  82 E3        29.98F
*PISMO BEACH     N/A     55  52  92 CALM      29.98S
*SANTA YNEZ    FAIR      50  45  81 CALM      29.98S

$$

CAZ037-038-051-241000-
SAN LUIS OBISPO COUNTY INTERIOR AND CUYAMA VALLEY


CITY           SKY/WX    TMP DP  RH WIND       PRES   REMARKS
*CUYAMA          N/A     54  35  48 CALM      29.97S
PASO ROBLES    CLEAR     50  39  66 SE3       29.99F

$$

CAZ032-033-061-241000-
SOUTHERN DESERTS


CITY           SKY/WX    TMP DP  RH WIND       PRES   REMARKS
BLYTHE         CLEAR     68  41  37 N6        29.94S
IMPERIAL       CLEAR     67  47  48 W5        29.91S
PALM SPRINGS   CLEAR     75  34  22 NW9       29.96F
THERMAL        CLEAR     59  49  69 CALM      29.90F

$$

ELSEWHERE ACROSS THE WESTERN UNITED STATES AND MEXICO


CITY           SKY/WX    TMP DP  RH WIND       PRES   REMARKS
DENVER, CO     CLOUDY    57  29  34 S9        30.14R
GRAND CANYON,  PTCLDY    31  24  75 CALM      30.35R HAZE
HONOLULU, HI   PTCLDY    79  70  73 NE7       30.05S
KAHULUI, MAUI  LGT RAIN  75  72  88 E8G18     30.06S FOG
LAKE TAHOE, CA CLEAR     38  21  50 VRB6      30.15S WCI  33
LAS VEGAS, NV  CLEAR     68  36  30 SW8       30.01S
MAMMOTH LAKES, FAIR      37  18  44 S3        30.25S
MEXICO CITY, M MOCLDY    57  48  72 NW7       30.36F
PHOENIX, AZ    CLEAR     73  51  46 E3        29.99R
PORTLAND, OR   CLOUDY    52  51  97 E3        30.04R
RENO, NV       CLEAR     45  30  55 CALM      30.09F
SALT LAKE CITY PTCLDY    49  40  71 CALM      30.11R
SAN DIEGO, CA  CLEAR     65  55  70 CALM      29.97R
SAN FRANCISCO, PTCLDY    66  59  78 E10       29.97F
SAN JOSE, CA   CLEAR     56  54  93 CALM      29.97F
SEATTLE, WA    CLOUDY    49  46  90 SE10      30.03S
TIJUANA, MEX     N/A    N/A N/A N/A MISG        N/A

$$

STATION/POSITION TIME  TEMP    WIND        PRES    VSBY  WAVE
                       AIR SEA DIR/SP/G                  HT/PER
                 (UTC) (F)     (DEG/KT/KT) (MB)    (MI)  (FT/S)
POINT ARGUELLO B NOT AVBL
WEST SANTA BARBA 0900   62 63  320/ 16/ 17 1013.5F         8/13
POINT CONCEPTION NOT AVBL
EAST SANTA BARBA 0800   66     210/  6       N/A
SANTA MONICA BAY 0900   67 71  190/  2/  2 1014.2F         4/11



USA.gov is the U.S. government's official web portal to all federal, state and local government web resources and services.